Regional Weather Roundup
Issued by NWS Kansas City/Pleasant Hill, MO

Home | Current Version | Previous Version | Text Only | Print | Product List | Glossary On
Versions: 1 2 3 4 5 6 7 8 9 10 11 12 13 14 15 16 17 18 19 20 21 22 23 24 25 26 27 28 29 30 31 32 33 34 35 36 37 38 39 40 41 42 43 44 45 46 47 48 49 50
000
ASUS43 KEAX 280104
RWREAX

WEATHER ROUNDUP FOR EASTERN KANSAS AND NORTHWEST MISSOURI
NATIONAL WEATHER SERVICE KANSAS CITY/PLEASANT HILL MO
700 PM CST FRI FEB 27 2015

KSZ040-057-103>105-MOZ028-029-037-043-280200-
...KANSAS CITY METROPOLITAN AREA...

CITY           SKY/WX    TMP DP  RH WIND       PRES   REMARKS
K.C. INTL      CLOUDY    16   0  49 SE3       30.55R
K.C. DOWNTOWN  MOCLDY    19   2  47 NE8       30.57S WCI   9
LEES SUMMIT    CLOUDY    18   1  47 SE6       30.55S WCI  10
OLATHE - IXD   CLOUDY    18   2  49 E5        30.54R WCI  11
OLATHE - OJC   CLOUDY    18   1  47 E5        30.53R WCI  11
LAWRENCE       CLOUDY    15   1  53 NE3       30.56S

$$

MOZ001>008-011>017-020>025-030>033-038>040-044>046-053-054-280200-
...NORTHERN AND CENTRAL MISSOURI...

CITY           SKY/WX    TMP DP  RH WIND       PRES   REMARKS
ST. JOSEPH     CLOUDY    19   2  47 S6        30.57R WCI  11
MOSBY          CLOUDY    18   3  53 E5        30.58S WCI  11
WARRENSBURG    CLOUDY    19   5  53 NE5       30.57S WCI  13
WHITEMAN AFB   CLOUDY    19   4  52 NE8       30.55S WCI   8
CLINTON        CLOUDY    23   3  42 CALM      30.57R
SEDALIA        CLOUDY    20   3  48 E6        30.58R WCI  12
WARSAW         NOT AVBL
MARSHALL       MOCLDY    19   5  53 NE3       30.59
CHILLICOTHE      N/A     16   4  59 CALM      30.61R
MOBERLY        PTCLDY    14   1  57 E5        30.60R WCI   6
KIRKSVILLE     MOCLDY    12   3  67 E7        30.59R WCI   1

$$

MOZ041-047>049-056>058-063>065-088>090-097-280200-
...EASTERN AND SOUTHERN MISSOURI...

CITY           SKY/WX    TMP DP  RH WIND       PRES   REMARKS
ST. LOUIS INTL MOCLDY    16  -2  45 NE7       30.64R WCI   6
SPIRIT OF STL  PTCLDY    16   0  49 NE8       30.64R WCI   5
COLUMBIA       CLOUDY    16   4  59 E10       30.58R WCI   4
JEFFERSON CITY CLOUDY    20   2  45 NE10      30.61R WCI   9
MEXICO         PTCLDY    14   3  62 E3        30.60R
HANNIBAL       MOCLDY    10  -6  48 CALM      30.63R
ROLLA          MOCLDY    20   2  45 E6        30.53R WCI  12
LEBANON        MOCLDY    21   1  42 E5        30.51S WCI  15
OSAGE BEACH    CLOUDY    19   0  42 E3        30.56R
SPRINGFIELD    CLOUDY    22   3  44 SE6       30.49R WCI  14
BRANSON        LGT SNOW  18  14  86 CALM      30.51S
NEVADA         CLOUDY    19   3  49 CALM      30.56S
JOPLIN         FLURRIES  20   8  60 SE6       30.53R WCI  12
WEST PLAINS    CLOUDY    21   2  43 E3        30.52S

$$

IAZ060-094-KSZ022-034>040-054-083-096-NEZ052-066-093-280200-
...KANSAS...SOUTHEAST NEBRASKA AND IOWA...

CITY           SKY/WX    TMP DP  RH WIND       PRES   REMARKS
TOPEKA         CLOUDY    19   0  43 E3        30.55S
MANHATTAN      CLOUDY    17   4  56 E6        30.51S WCI   9
EMPORIA        LGT SNOW  16   9  74 S7        30.51R WCI   6
CHANUTE        FLURRIES  18  11  74 E5        30.53S WCI  11
WICHITA        CLOUDY    16   9  74 SE7       30.47F WCI   6
OMAHA          PTCLDY    16   4  59 SE10      30.53R WCI   4
LINCOLN        CLEAR     15   1  53 S7        30.49S WCI   5
FALLS CITY     PTCLDY    15  -2  46 SE5       30.54R WCI   8
LAMONI         CLEAR     11  -2  56 E5        30.55R WCI   3
DES MOINES     FAIR      11  -3  53 S5        30.58R WCI   3

$$




USA.gov is the U.S. government's official web portal to all federal, state and local government web resources and services.